EW7356 Weather Reports


Display with metric or nautical units.
time (UTC)temp
F
wind
direction
speed
MPH
gust
MPH
rain 1hr
in
rain 24hr
in
rain mn
in
humidity
%
barometer
mb
20260504034546 38 0 1.0 4.0 0.00 0.00 0.00 64 1007.5
20260504034030 38 263 0.0 3.0 0.00 0.00 0.00 65 1007.6
20260504033537 38 266 1.0 3.0 0.00 0.00 0.00 65 1007.5
20260504033046 37 244 1.0 3.0 0.00 0.00 0.00 66 1007.5
20260504032530 37 256 0.0 3.0 0.00 0.00 0.00 66 1007.5
20260504032029 37 0 1.0 3.0 0.00 0.00 0.00 66 1007.5
20260504031601 37 0 1.0 2.0 0.00 0.00 0.00 67 1007.5
20260504031031 37 272 1.0 2.0 0.00 0.00 0.00 68 1007.5
20260504030529 37 0 0.0 2.0 0.00 0.00 0.00 67 1007.6
20260504030042 37 272 0.0 2.0 0.00 0.00 0.00 67 1007.5
20260504025535 37 0 0.0 2.0 0.00 0.00 0.00 67 1007.5
20260504025029 37 0 0.0 2.0 0.00 0.00 0.00 67 1007.4
20260504024542 37 273 0.0 3.0 0.00 0.00 0.00 67 1007.5
20260504024031 38 0 1.0 3.0 0.00 0.00 0.00 66 1007.5
20260504023530 38 0 0.0 3.0 0.00 0.00 0.00 65 1007.5
20260504023034 38 0 0.0 3.0 0.00 0.00 0.00 65 1007.7
20260504022531 38 0 0.0 2.0 0.00 0.00 0.00 65 1007.7
20260504022030 38 0 0.0 2.0 0.00 0.00 0.00 65 1007.7
20260504021543 38 0 0.0 0.0 0.00 0.00 0.00 66 1007.7
20260504021029 38 0 0.0 0.0 0.00 0.00 0.00 65 1007.7
20260504020529 38 0 0.0 1.0 0.00 0.00 0.00 65 1007.6
20260504020040 38 0 0.0 2.0 0.00 0.00 0.00 64 1007.5
20260504015530 38 0 0.0 2.0 0.00 0.10 0.00 64 1007.5
20260504015031 38 0 0.0 2.0 0.00 0.10 0.00 65 1007.5
20260504014543 38 0 0.0 2.0 0.00 0.10 0.00 65 1007.5
20260504014030 39 0 0.0 2.0 0.00 0.10 0.00 64 1007.4
20260504013529 39 275 0.0 2.0 0.00 0.10 0.00 64 1007.5
20260504013038 39 0 0.0 2.0 0.00 0.10 0.00 62 1007.4
20260504012529 40 0 0.0 2.0 0.00 0.10 0.00 61 1007.5
20260504012029 40 0 0.0 1.0 0.00 0.10 0.00 60 1007.3
20260504011550 40 0 0.0 1.0 0.00 0.10 0.00 60 1007.3
20260504011030 40 0 0.0 1.0 0.00 0.10 0.00 59 1007.2
20260504010532 40 275 0.0 1.0 0.00 0.10 0.00 59 1007.1
20260504010046 40 0 0.0 2.0 0.00 0.10 0.00 59 1007.2
20260504005530 40 0 0.0 3.0 0.00 0.10 0.00 59 1007.1
20260504005030 41 0 0.0 3.0 0.00 0.10 0.00 60 1007.0
20260504004542 41 280 0.0 3.0 0.00 0.10 0.00 60 1007.0
20260504004029 41 269 0.0 3.0 0.00 0.10 0.00 60 1006.9
20260504003530 41 269 1.0 3.0 0.00 0.10 0.00 59 1006.9
20260504003044 41 269 0.0 3.0 0.00 0.10 0.00 58 1006.8
20260504002529 42 270 1.0 4.0 0.00 0.10 0.00 57 1006.8
20260504002029 42 273 0.0 5.0 0.00 0.10 0.00 55 1006.7
20260504001554 42 274 0.0 5.0 0.00 0.10 0.00 55 1006.6
20260504001030 42 269 2.0 6.0 0.00 0.10 0.00 54 1006.6
20260504000530 42 344 1.0 6.0 0.00 0.10 0.00 54 1006.5
20260504000039 43 313 2.0 5.0 0.00 0.10 0.00 55 1006.5
20260503235530 43 291 1.0 6.0 0.00 0.10 0.00 55 1006.4
20260503235030 43 329 2.0 6.0 0.00 0.10 0.00 53 1006.4
20260503234536 44 0 1.0 9.0 0.00 0.10 0.00 53 1006.3
20260503234033 44 259 2.0 9.0 0.00 0.10 0.00 53 1006.3
20260503233530 44 319 3.0 8.0 0.00 0.10 0.00 52 1006.3
20260503233043 44 350 3.0 8.0 0.00 0.10 0.00 51 1006.2
20260503232532 45 296 3.0 11.0 0.00 0.10 0.00 52 1006.2
20260503232029 45 302 3.0 12.0 0.00 0.10 0.00 51 1006.2
20260503231550 45 275 3.0 12.0 0.00 0.10 0.00 50 1006.2
20260503231030 45 306 5.0 12.0 0.00 0.10 0.00 49 1006.2
20260503230531 46 344 4.0 11.0 0.00 0.10 0.00 49 1006.2
20260503230039 46 284 5.0 10.0 0.00 0.10 0.00 49 1006.1
20260503225533 46 289 4.0 13.0 0.00 0.10 0.00 50 1006.1
20260503225029 46 319 4.0 13.0 0.00 0.10 0.00 49 1006.1
20260503224538 47 238 4.0 11.0 0.00 0.10 0.00 49 1006.1
20260503224030 47 320 4.0 13.0 0.00 0.10 0.00 48 1006.1
20260503223529 48 348 5.0 13.0 0.00 0.10 0.00 49 1006.1
20260503223042 48 277 6.0 13.0 0.00 0.10 0.00 48 1006.0
20260503222529 48 306 2.0 10.0 0.00 0.10 0.00 49 1005.9
20260503222029 47 282 2.0 11.0 0.00 0.10 0.00 50 1006.1
20260503221544 46 340 3.0 12.0 0.00 0.10 0.00 52 1006.0
20260503221031 46 283 3.0 12.0 0.00 0.10 0.00 52 1006.0
20260503220533 46 258 5.0 12.0 0.00 0.10 0.00 50 1005.9
20260503220042 46 263 6.0 16.0 0.00 0.10 0.00 50 1006.0
20260503215530 45 256 5.0 16.0 0.00 0.10 0.00 52 1006.0
20260503215029 45 295 7.0 16.0 0.00 0.10 0.00 51 1006.0
20260503214545 45 294 5.0 13.0 0.00 0.10 0.00 50 1005.9
20260503214029 45 360 4.0 14.0 0.00 0.10 0.00 52 1005.8
20260503213529 45 297 7.0 14.0 0.00 0.10 0.00 50 1005.8
20260503213102 45 342 4.0 11.0 0.00 0.10 0.00 51 1005.8
20260503212529 45 344 2.0 14.0 0.00 0.10 0.00 52 1005.8
20260503212029 45 246 6.0 14.0 0.00 0.10 0.00 50 1005.6
20260503211614 45 296 6.0 18.0 0.00 0.10 0.00 49 1005.8
20260503211032 45 302 7.0 18.0 0.00 0.10 0.00 48 1005.7
20260503210532 45 345 7.0 19.0 0.00 0.10 0.00 48 1005.8
20260503210044 46 338 6.0 19.0 0.00 0.10 0.00 49 1005.7
20260503205530 45 360 6.0 16.0 0.00 0.12 0.00 51 1005.5
20260503205034 45 286 6.0 17.0 0.00 0.12 0.00 48 1005.5
20260503204557 46 350 9.0 17.0 0.00 0.12 0.00 47 1005.5
20260503204029 46 302 5.0 17.0 0.00 0.12 0.00 47 1005.3
20260503203530 46 289 5.0 17.0 0.00 0.12 0.00 47 1005.3
20260503203040 46 329 3.0 23.0 0.00 0.12 0.00 48 1005.3
20260503202529 46 309 8.0 23.0 0.00 0.12 0.00 46 1005.3
20260503202029 46 255 7.0 23.0 0.00 0.12 0.00 45 1005.2
20260503201545 46 278 7.0 15.0 0.00 0.12 0.00 46 1005.3
20260503201030 46 290 7.0 21.0 0.00 0.12 0.00 47 1005.2
20260503200527 46 284 8.0 21.0 0.00 0.12 0.00 46 1005.2
20260503200034 46 329 7.0 17.0 0.00 0.12 0.00 46 1005.1
20260503195530 46 341 9.0 17.0 0.00 0.15 0.00 45 1005.2
20260503195029 46 334 5.0 17.0 0.00 0.15 0.00 48 1005.2
20260503194542 47 261 6.0 17.0 0.00 0.15 0.00 45 1005.1
20260503194030 47 251 6.0 17.0 0.00 0.15 0.00 44 1005.1
20260503193532 47 292 4.0 16.0 0.00 0.15 0.00 46 1005.2
20260503193040 47 306 5.0 16.0 0.00 0.15 0.00 46 1005.2
20260503192529 47 342 7.0 17.0 0.00 0.15 0.00 45 1005.2
20260503192029 47 38 7.0 17.0 0.00 0.15 0.00 48 1005.3
20260503191555 46 298 7.0 17.0 0.00 0.15 0.00 47 1005.3
20260503191030 46 12 5.0 22.0 0.00 0.15 0.00 48 1005.5
20260503190530 46 255 10.0 22.0 0.00 0.15 0.00 46 1005.4
20260503190040 46 275 6.0 16.0 0.00 0.15 0.00 48 1005.4
20260503185531 46 315 7.0 16.0 0.00 0.16 0.00 47 1005.3
20260503185029 47 237 7.0 15.0 0.00 0.16 0.00 45 1005.3
20260503184544 47 304 5.0 18.0 0.00 0.16 0.00 48 1005.3
20260503184030 47 344 6.0 18.0 0.00 0.16 0.00 48 1005.3
20260503183529 47 282 6.0 20.0 0.00 0.16 0.00 48 1005.2
20260503183046 47 325 7.0 20.0 0.00 0.16 0.00 48 1005.3
20260503182529 47 279 5.0 19.0 0.00 0.16 0.00 48 1005.2
20260503182030 47 331 9.0 19.0 0.00 0.16 0.00 46 1005.2
20260503181551 47 289 9.0 17.0 0.00 0.16 0.00 45 1005.2
20260503181033 48 304 7.0 13.0 0.00 0.16 0.00 47 1005.1
20260503180530 48 271 5.0 13.0 0.00 0.16 0.00 47 1005.0
20260503180042 48 352 6.0 17.0 0.00 0.16 0.00 48 1004.9
20260503175530 48 352 5.0 17.0 0.00 0.17 0.00 47 1005.1
20260503175029 47 277 6.0 16.0 0.00 0.17 0.00 47 1005.1
20260503174551 47 10 7.0 14.0 0.00 0.17 0.00 48 1005.2
20260503174029 47 319 7.0 20.0 0.00 0.17 0.00 52 1005.2
20260503173529 47 350 5.0 20.0 0.00 0.17 0.00 52 1005.1
20260503173034 46 24 8.0 20.0 0.00 0.17 0.00 52 1005.1
20260503172528 47 355 6.0 18.0 0.00 0.17 0.00 55 1005.0
20260503172029 46 333 7.0 18.0 0.00 0.17 0.00 52 1005.1
20260503171542 47 9 9.0 18.0 0.00 0.17 0.00 55 1005.2
20260503171032 47 333 5.0 23.0 0.00 0.17 0.00 60 1005.1
20260503170530 46 339 10.0 23.0 0.00 0.17 0.00 54 1005.1
20260503150535 43 348 5.0 21.0 0.00 0.24 0.00 72 1005.6
20260503131030 38 308 3.0 12.0 0.00 0.25 0.00 87 1006.4
20260503130529 38 265 4.0 12.0 0.00 0.25 0.00 86 1006.3
20260503110533 36 290 2.0 10.0 0.00 0.26 0.00 92 1006.4
20260503081554 36 261 1.0 7.0 0.00 0.31 0.00 94 1007.0
20260503081027 36 267 2.0 7.0 0.00 0.31 0.00 94 1007.1
20260503080530 36 0 1.0 7.0 0.00 0.31 0.00 94 1007.2
20260503072530 35 277 2.0 8.0 0.00 0.32 0.00 94 1007.3
20260503072029 35 279 1.0 8.0 0.00 0.32 0.00 94 1007.2
20260503071556 35 281 3.0 8.0 0.00 0.32 0.00 95 1007.3
20260503071029 35 300 2.0 6.0 0.00 0.32 0.00 94 1007.4
20260503070532 35 261 1.0 8.0 0.00 0.32 0.00 94 1007.5
20260503055028 36 277 3.0 7.0 0.00 0.37 0.00 94 1008.0
20260503054551 36 276 2.0 6.0 0.00 0.37 0.00 94 1008.3
20260503054029 36 248 2.0 6.0 0.00 0.37 0.00 94 1008.3
20260503053530 36 259 2.0 5.0 0.00 0.37 0.00 94 1008.3
20260503053041 36 268 1.0 6.0 0.00 0.37 0.00 95 1008.4
20260503052530 36 257 1.0 6.0 0.00 0.37 0.00 95 1008.3
20260503052030 36 284 1.0 6.0 0.00 0.37 0.00 95 1008.6
20260503051548 36 277 2.0 6.0 0.00 0.37 0.00 95 1008.6
20260503051029 36 254 2.0 6.0 0.00 0.37 0.00 95 1008.5
20260503050529 36 306 1.0 4.0 0.00 0.37 0.00 94 1008.6
20260503050040 36 262 0.0 3.0 0.00 0.37 0.00 94 1008.6
20260503045530 36 292 0.0 3.0 0.00 0.37 0.00 94 1008.6
20260503045030 36 0 0.0 2.0 0.00 0.37 0.00 94 1008.6
20260503044535 36 0 0.0 2.0 0.00 0.37 0.00 94 1008.8
20260503044028 36 307 0.0 2.0 0.00 0.37 0.00 94 1008.9
20260503043529 36 0 0.0 2.0 0.00 0.37 0.00 94 1009.0
20260503043033 36 307 0.0 4.0 0.00 0.37 0.00 94 1009.0
20260503042529 37 0 0.0 4.0 0.00 0.37 0.00 94 1009.0
20260503042029 37 330 1.0 4.0 0.00 0.37 0.00 94 1009.0
20260503041539 37 322 1.0 3.0 0.00 0.37 0.00 94 1009.1
20260503041030 37 319 0.0 3.0 0.00 0.37 0.00 94 1009.1
20260503040532 37 0 0.0 3.0 0.00 0.37 0.00 94 1009.2
20260503040044 37 279 1.0 3.0 0.00 0.37 0.00 94 1009.2
20260503035529 37 277 0.0 3.0 0.00 0.37 0.37 94 1009.1
20260503035030 37 272 0.0 3.0 0.00 0.37 0.37 94 1009.1